User: anonymous   Login
Location: Unspecified
(0.0000°N, 0.0000°E)
Time: 10:08:15
(UTC+01:00)
Language:

Cosmos 2263 Rocket - Orbit

View from above orbital plane
View from above orbital plane
View from above satellite
View from above satellite

Ground track
Ground track

The orbit data is extracted from the following two-line orbital elements,

1 22803U 93059B   18051.53857852 +.00000003 +00000-0 +25601-4 0  9990
2 22803 070.9897 086.1023 0017152 359.2816 000.8280 14.16787657263457
Epoch (UTC): 20 February 2018 12:55:33
Eccentricity: 0.0017152
inclination: 70.9897°
perigee height: 824 km
apogee height: 848 km
right ascension of ascending node: 86.1023°
argument of perigee: 359.2816°
revolutions per day: 14.16787657
mean anomaly at epoch: 0.8280°
orbit number at epoch: 26345

The dashed part of the orbit path shows where the satellite is in the earth's shadow,  

DLR